Wetbulb
75.80 77.18 76.73 72.74 65.09 62.64 57.92 58.97 63.47 61.43 62.18 66.00 66.13 64.45 64.62 66.26 64.24 62.51 73.42 73.58 74.68 75.77 77.13 77.13 78.04 78.01 77.14 76.75 76.94 77.27 77.48 76.97 77.00 76.97 76.89 76.75 76.67 76.51 75.90 75.71 75.49 75.12 74.87 75.23 74.55 74.68 75.04 74.85 75.07
76.21 75.46 73.05 70.58 59.98 55.55 57.10 61.98 61.03 63.48 65.16 67.09 66.75 66.21 65.26 65.63 69.63 70.25 71.03 73.90 75.04 75.93 76.77 76.89 77.71 78.14 77.94 77.15 76.71 76.72 76.84 76.95 76.81 76.67 76.57 76.53 76.62 76.32 76.04 75.71 75.90 75.74 75.82 75.46 75.06 74.92 75.01 75.46 76.12
75.57 75.52 71.36 65.81 59.50 56.55 57.17 61.68 63.84 65.67 66.85 65.79 65.40 68.04 67.01 67.47 69.47 70.74 73.46 74.48 75.08 75.68 76.11 76.98 78.03 77.79 77.23 77.25 77.33 77.12 76.78 76.32 76.40 76.32 76.13 76.10 76.13 76.02 75.96 75.79 75.93 75.99 75.68 75.37 75.46 75.06 75.54 75.57 75.54
76.12 73.67 72.17 62.16 57.95 60.96 61.03 63.80 65.61 65.40 66.48 66.67 66.40 65.15 69.57 72.17 70.99 72.78 73.80 74.66 75.20 75.63 76.03 77.10 78.29 77.27 77.07 77.06 77.09 76.94 76.86 76.53 76.48 76.37 76.21 76.32 76.38 76.26 75.99 75.96 76.10 75.77 75.60 75.07 75.12 75.51 75.85 75.07 75.27
75.81 72.91 63.31 59.82 59.95 62.55 64.28 65.74 65.92 64.10 64.77 65.50 66.14 64.39 66.96 71.40 73.74 73.96 73.79 74.44 74.83 75.82 76.14 76.82 78.37 78.32 78.12 77.20 76.93 76.94 76.83 76.69 76.81 76.73 76.71 76.60 76.85 76.73 76.83 76.21 75.98 75.76 75.24 75.29 75.24 75.35 75.12 74.65 74.85
70.33 70.78 60.81 57.68 59.85 63.02 64.93 66.84 65.70 64.95 65.22 65.42 64.90 65.27 67.76 73.20 73.04 73.65 74.16 74.16 74.73 75.31 76.36 76.17 78.27 78.42 77.98 77.34 77.46 77.56 77.45 77.33 77.09 77.17 76.65 76.53 76.88 76.64 76.38 75.40 75.18 75.29 75.35 74.91 74.62 74.82 74.59 74.82 74.79
68.10 67.05 61.26 60.73 60.57 61.97 64.11 67.68 65.66 64.80 65.04 64.67 67.19 64.07 68.71 71.20 73.71 74.53 74.13 74.08 74.28 75.37 76.16 77.29 76.71 77.76 77.22 77.52 77.15 77.28 76.86 77.19 77.11 77.09 76.76 76.93 76.72 76.36 76.68 76.21 75.96 75.32 75.15 75.35 75.49 75.76 75.93 75.99 76.04
70.23 68.30 61.69 62.23 60.02 61.25 65.88 66.53 67.28 65.71 64.82 69.52 69.48 65.53 65.78 71.53 73.93 74.46 74.37 74.10 74.68 75.29 76.00 76.38 77.21 76.89 76.98 77.45 77.16 77.16 76.69 76.95 76.98 77.29 76.93 76.92 76.79 77.12 76.73 76.00 76.37 76.12 76.04 76.01 76.09 76.04 75.55 75.58 76.27
71.62 64.96 61.33 61.85 62.58 63.15 66.72 65.26 67.81 69.11 66.93 67.97 69.03 68.86 70.31 73.44 74.39 73.34 72.94 73.26 73.93 74.47 75.12 75.55 76.19 75.81 77.36 76.67 77.30 77.17 76.96 76.69 77.18 77.35 77.04 77.21 76.96 76.91 77.94 78.36 76.70 75.51 76.29 76.21 76.46 76.83 76.15 75.99 76.24
68.77 65.73 62.74 66.19 66.89 65.52 65.93 65.73 66.61 66.60 66.10 67.03 68.71 70.56 71.69 72.78 72.70 71.68 70.95 70.85 71.90 72.26 73.36 74.76 75.70 76.35 75.82 75.95 77.18 77.20 76.66 77.65 76.80 77.12 77.18 76.45 77.39 76.94 77.17 77.31 76.62 76.35 76.70 76.85 76.93 77.03 76.43 75.92 76.52
68.11 64.99 66.32 67.19 68.32 68.10 65.58 65.35 67.22 65.73 64.82 66.99 68.03 69.40 70.45 71.25 71.48 71.13 71.09 71.43 71.73 72.65 73.39 74.03 74.68 75.89 75.88 75.46 75.40 76.28 76.28 76.89 76.92 77.45 77.99 76.56 76.82 76.92 76.65 76.58 76.64 76.06 76.70 76.02 77.04 76.95 77.41 76.64 76.58
66.39 67.57 67.55 67.67 68.68 67.31 65.69 66.61 65.65 66.16 67.05 69.13 71.11 71.05 70.59 70.28 70.44 70.80 71.15 71.73 72.11 72.66 73.36 73.62 74.45 75.54 75.37 75.32 75.64 75.81 75.37 75.70 76.02 76.58 77.85 77.70 76.57 76.51 76.62 76.28 76.60 76.76 76.06 76.51 77.43 77.42 78.33 77.53 77.48
65.98 66.97 67.30 68.14 68.88 67.97 67.62 66.01 66.01 66.27 68.40 70.76 71.62 70.71 70.08 70.37 70.64 71.39 72.24 72.71 73.36 72.82 73.47 73.82 74.69 76.11 75.90 76.10 75.61 75.96 75.53 75.37 75.99 76.25 77.06 76.70 75.60 75.75 75.94 75.87 76.06 76.05 76.78 77.07 77.38 77.25 77.54 77.66 77.37
67.87 67.70 67.10 67.65 68.06 67.83 66.22 66.72 67.11 67.31 69.78 70.56 70.34 69.82 69.98 69.80 70.57 71.48 72.49 72.76 73.52 74.11 74.05 74.14 74.31 75.93 76.11 75.97 76.63 75.92 75.83 75.83 75.87 75.89 76.30 77.14 75.96 75.52 75.57 75.65 75.83 76.21 76.98 77.38 77.39 77.50 77.16 77.14 77.30
68.46 65.10 66.22 66.76 66.54 66.97 67.94 64.97 64.74 68.41 69.97 69.69 69.44 69.50 69.58 70.08 70.87 71.06 72.42 72.80 74.02 74.68 75.12 74.71 74.98 75.50 76.00 76.01 76.63 76.05 75.87 75.49 75.22 75.90 77.13 77.12 77.23 76.80 76.86 75.50 75.87 76.40 77.67 78.30 78.16 78.31 78.10 77.51 77.14
64.98 65.19 62.24 65.92 67.07 66.91 67.11 61.87 66.34 68.73 68.95 68.77 69.45 69.33 69.12 69.81 70.60 71.32 72.31 73.31 74.50 74.96 75.36 75.78 74.95 75.18 75.75 75.86 76.05 75.59 75.46 75.45 75.06 74.98 75.53 76.64 77.27 77.46 76.48 75.31 75.90 77.11 77.44 77.44 77.18 77.11 76.39 76.32 76.45
63.57 60.67 61.02 62.56 66.93 66.19 65.66 63.03 66.94 68.68 68.36 68.35 69.33 69.68 69.56 69.98 71.03 72.07 72.37 73.15 74.32 75.56 76.12 76.38 76.11 75.07 75.57 76.48 75.67 75.98 76.17 75.44 75.00 74.98 74.83 76.09 76.50 76.52 76.15 75.34 76.04 77.68 77.11 76.82 76.66 76.09 76.47 75.82 75.88
59.35 59.97 61.18 60.93 64.47 65.30 64.24 63.66 66.92 68.32 67.70 67.96 68.68 69.35 69.97 70.26 70.77 72.38 73.12 73.69 74.21 75.28 76.36 76.89 76.88 76.44 76.22 76.21 76.07 74.93 75.13 75.31 75.18 74.49 74.36 75.47 75.83 75.88 75.89 75.41 76.30 77.51 76.62 76.11 76.29 76.67 76.32 75.80 75.45
63.20 61.79 60.40 62.86 65.17 63.92 63.50 63.53 65.26 67.84 68.05 67.74 68.46 68.85 69.45 70.25 72.05 72.80 73.50 73.97 74.30 75.00 75.58 76.36 76.58 77.33 76.09 75.14 74.67 73.51 73.02 74.46 74.61 74.81 75.24 75.35 74.99 74.68 74.99 74.84 75.68 76.89 76.43 76.62 77.04 76.76 76.71 75.58 75.80
62.68 60.87 60.38 63.46 65.03 64.51 63.19 60.53 64.87 66.77 67.70 68.51 68.34 68.68 69.20 70.19 71.33 72.43 73.03 73.53 73.66 74.29 75.24 76.16 76.55 77.30 76.98 75.93 75.75 75.39 73.91 74.57 75.29 75.54 75.94 76.18 76.22 75.58 74.33 75.07 75.14 76.21 75.49 77.20 76.82 76.77 74.65 74.27 75.34
61.53 60.36 59.88 59.85 63.42 64.91 63.72 58.23 60.52 66.28 67.54 68.56 69.44 70.08 70.29 70.35 70.51 71.85 72.80 73.61 74.01 74.03 74.44 75.22 76.60 77.18 78.15 77.88 76.38 76.14 75.96 74.42 74.37 75.19 75.42 76.20 77.02 77.17 77.01 76.45 76.88 77.91 76.63 74.19 76.95 76.39 76.00 72.89 73.93
59.63 63.02 61.78 60.52 60.32 56.08 63.28 53.40 59.32 60.41 61.26 66.41 67.89 69.54 69.52 70.71 71.84 72.53 73.01 73.42 74.06 74.56 75.35 75.64 76.36 77.26 77.84 78.28 77.49 77.80 74.86 72.66 72.51 75.23 75.00 75.04 77.38 77.17 77.72 77.73 77.53 77.76 76.15 77.08 76.37 76.01 76.26 77.69 72.85
61.01 62.62 61.51 61.58 61.30 59.13 59.18 56.54 59.16 62.10 59.40 60.33 62.15 64.78 67.41 69.71 71.24 71.86 72.53 73.74 74.63 75.30 75.22 75.43 75.99 76.62 77.30 78.10 77.29 76.29 76.23 75.04 75.16 75.01 72.28 77.91 73.90 76.95 77.04 77.62 77.46 77.98 77.17 77.89 77.10 77.91 77.24 77.21 75.07
64.08 61.68 61.83 62.03 60.19 54.48 56.32 57.68 55.72 58.90 60.33 61.15 62.63 63.69 65.64 67.90 70.79 72.60 73.79 74.55 74.98 75.44 75.37 75.07 75.67 76.19 76.79 76.78 76.74 76.71 77.69 77.32 75.20 75.78 74.39 73.49 72.95 75.49 75.44 76.74 76.91 75.96 76.77 77.16 77.42 77.85 77.88 77.01 75.60
62.67 59.50 55.05 53.19 53.89 51.47 57.49 57.12 57.58 62.19 63.51 63.81 63.62 64.39 65.93 68.84 70.88 71.86 72.82 73.59 74.84 75.20 74.96 74.50 75.31 75.68 76.48 76.32 76.14 76.20 76.24 76.93 76.85 76.74 74.93 75.94 74.01 74.08 74.30 75.53 77.40 75.80 76.47 74.79 77.03 77.36 76.84 76.61 76.29
59.71 58.76 53.74 48.24 50.61 51.46 57.65 54.02 58.05 62.95 64.85 65.11 65.91 67.68 68.49 70.42 70.32 67.83 69.26 72.42 74.50 75.23 75.80 75.10 74.86 75.52 75.97 75.92 76.16 76.54 76.68 75.41 75.46 76.39 75.44 74.89 74.34 74.85 77.74 77.68 74.42 76.18 76.24 75.54 75.76 74.31 75.15 74.94 72.40
59.69 57.94 60.02 54.83 54.49 51.24 54.45 55.60 58.99 62.14 62.25 63.96 65.68 67.05 67.88 69.59 69.03 68.71 70.05 72.98 74.60 75.42 75.17 75.04 75.30 75.81 75.68 75.39 75.58 75.93 76.26 76.08 75.51 76.93 77.24 75.18 76.91 74.94 76.13 76.31 76.07 75.90 75.82 75.88 75.95 74.21 73.89 72.88 73.22
58.91 59.77 54.58 56.25 49.18 48.02 52.49 52.89 55.06 57.05 59.13 62.05 62.12 64.77 66.55 68.38 69.55 69.97 70.72 73.36 73.80 74.00 74.86 75.20 75.66 75.93 76.57 76.35 76.24 76.05 76.40 76.81 76.73 76.42 75.72 75.71 75.65 75.49 75.21 74.87 75.31 75.65 75.63 75.65 75.29 73.91 73.96 73.12 71.89
56.96 57.19 56.84 55.71 53.87 49.86 48.77 52.29 59.19 58.95 60.54 61.07 62.12 63.07 64.57 68.21 69.93 70.69 71.67 73.00 73.60 74.27 75.25 75.94 76.57 76.82 76.76 77.10 77.02 76.70 76.21 76.21 75.81 75.15 75.29 75.18 75.23 75.02 74.57 74.91 74.87 74.05 74.29 74.30 73.81 73.20 71.84 70.71 70.28
56.56 55.47 55.69 52.55 51.74 55.24 52.48 51.90 59.35 60.38 61.33 61.33 62.34 63.89 65.20 66.54 68.94 71.26 72.38 73.52 74.02 74.57 75.27 75.81 76.49 76.70 76.90 76.91 76.26 75.42 74.96 74.84 74.36 74.07 74.24 74.15 73.91 74.29 74.27 73.86 73.71 73.34 72.94 72.82 72.03 70.05 70.42 68.57 68.17
MSLP
1009.30 1008.62 1008.64 1007.75 1006.47 1004.15 1003.89 1004.93 1004.82 1005.54 1006.15 1006.80 1007.26 1007.62 1007.79 1008.35 1008.69 1009.88 1011.43 1011.63 1012.28 1012.95 1014.10 1015.12 1015.57 1015.75 1016.03 1016.34 1016.51 1016.61 1016.93 1017.23 1017.48 1017.60 1017.71 1017.90 1018.09 1018.24 1018.39 1018.48 1018.56 1018.64 1018.64 1018.72 1018.73 1018.72 1018.86 1018.98 1019.10
1008.36 1008.72 1008.54 1006.59 1004.91 1003.46 1004.33 1004.47 1004.81 1005.53 1006.12 1006.93 1007.67 1007.95 1008.09 1008.81 1009.97 1010.78 1011.27 1011.98 1012.41 1012.88 1013.94 1014.64 1015.63 1015.80 1016.13 1016.51 1016.65 1016.92 1017.15 1017.39 1017.58 1017.74 1017.86 1018.10 1018.24 1018.39 1018.46 1018.49 1018.62 1018.71 1018.72 1018.84 1018.96 1018.97 1019.03 1019.12 1019.24
1008.79 1008.55 1007.06 1004.83 1003.84 1003.44 1004.15 1004.71 1005.21 1006.16 1006.67 1007.01 1007.47 1008.00 1008.47 1009.45 1010.62 1010.69 1011.16 1012.13 1012.55 1013.07 1013.70 1014.59 1015.62 1015.92 1016.28 1016.56 1016.81 1017.01 1017.30 1017.56 1017.69 1017.91 1018.04 1018.26 1018.39 1018.48 1018.52 1018.57 1018.65 1018.75 1018.91 1019.01 1019.03 1019.14 1019.22 1019.27 1019.38
1008.12 1007.60 1006.35 1004.61 1004.03 1004.62 1004.45 1004.95 1005.68 1006.20 1006.78 1007.14 1007.43 1007.91 1009.37 1010.46 1010.49 1010.84 1011.93 1012.28 1012.74 1013.08 1013.74 1015.23 1015.68 1016.04 1016.39 1016.70 1016.91 1017.15 1017.44 1017.65 1017.79 1018.01 1018.18 1018.28 1018.47 1018.53 1018.59 1018.64 1018.78 1018.85 1018.98 1019.12 1019.15 1019.26 1019.39 1019.47 1019.52
1007.81 1006.68 1004.45 1003.98 1004.18 1004.59 1004.90 1005.41 1005.79 1005.96 1006.48 1007.03 1007.57 1008.21 1009.54 1010.65 1011.06 1011.59 1012.13 1012.50 1012.83 1013.30 1013.77 1015.24 1015.88 1016.15 1016.50 1016.85 1017.09 1017.34 1017.62 1017.75 1017.88 1018.01 1018.18 1018.24 1018.37 1018.48 1018.65 1018.74 1018.82 1018.86 1019.09 1019.21 1019.37 1019.57 1019.53 1019.62 1019.66
1006.68 1005.96 1004.01 1003.86 1004.28 1004.73 1004.97 1005.50 1005.82 1006.04 1006.74 1007.46 1007.82 1008.40 1009.87 1011.13 1011.43 1011.93 1012.35 1012.57 1012.68 1013.23 1013.83 1014.93 1016.03 1016.34 1016.68 1016.98 1017.21 1017.49 1017.71 1017.75 1017.91 1018.00 1018.17 1018.32 1018.42 1018.53 1018.73 1018.71 1018.84 1018.99 1019.12 1019.32 1019.42 1019.51 1019.59 1019.61 1019.64
1006.56 1004.99 1004.70 1004.02 1004.36 1004.65 1005.15 1005.61 1005.41 1005.85 1006.66 1007.26 1007.82 1008.12 1010.10 1010.97 1011.52 1012.01 1012.58 1012.81 1012.86 1013.27 1013.80 1014.59 1015.64 1016.25 1016.88 1017.13 1017.38 1017.53 1017.75 1017.82 1017.96 1018.01 1018.15 1018.30 1018.43 1018.56 1018.72 1018.73 1018.87 1019.07 1019.22 1019.33 1019.41 1019.42 1019.46 1019.50 1019.54
1006.84 1005.68 1004.61 1004.30 1004.31 1004.91 1005.42 1005.64 1005.94 1005.70 1006.55 1007.52 1007.80 1007.71 1009.30 1010.41 1011.47 1012.09 1012.68 1012.99 1013.28 1013.54 1013.71 1014.31 1015.22 1015.71 1016.10 1016.49 1017.34 1017.63 1017.84 1018.01 1018.07 1018.08 1018.25 1018.40 1018.44 1018.51 1018.61 1018.77 1018.78 1018.99 1019.14 1019.27 1019.36 1019.40 1019.60 1019.54 1019.48
1007.04 1005.11 1004.56 1004.79 1004.74 1004.89 1005.49 1005.43 1006.06 1006.36 1006.65 1007.24 1007.87 1007.84 1008.39 1010.44 1011.31 1011.86 1012.57 1013.09 1013.61 1013.84 1013.87 1013.99 1014.50 1015.78 1015.87 1016.37 1016.59 1017.53 1017.82 1018.09 1018.06 1018.04 1018.27 1018.42 1017.52 1017.59 1018.09 1018.00 1018.66 1018.99 1019.19 1019.28 1019.27 1019.12 1019.43 1019.28 1019.20
1006.37 1004.81 1004.72 1005.21 1005.26 1005.02 1005.21 1005.16 1005.52 1005.89 1006.44 1007.13 1008.04 1008.63 1009.38 1010.60 1011.24 1011.46 1012.01 1012.42 1013.10 1013.55 1013.87 1014.09 1013.98 1014.59 1015.68 1015.60 1015.86 1016.65 1016.68 1016.99 1017.23 1017.20 1017.91 1017.64 1016.93 1017.03 1017.39 1017.82 1018.68 1018.99 1019.09 1019.05 1018.91 1018.93 1019.04 1018.97 1017.72
1006.32 1005.15 1005.46 1005.31 1005.15 1005.17 1004.84 1005.05 1005.30 1005.45 1005.82 1006.21 1007.37 1008.84 1009.85 1010.42 1010.97 1011.23 1011.62 1011.89 1012.47 1013.04 1013.53 1014.05 1014.18 1014.53 1014.71 1015.24 1015.79 1016.77 1016.01 1016.15 1017.14 1017.63 1017.82 1017.27 1016.86 1017.33 1017.41 1017.28 1017.58 1018.14 1018.49 1018.11 1018.07 1017.91 1018.46 1018.48 1018.01
1005.86 1005.78 1005.84 1005.50 1005.16 1004.89 1004.81 1004.96 1005.17 1005.50 1005.77 1006.36 1007.34 1008.78 1009.57 1010.13 1010.51 1010.91 1011.25 1011.72 1012.24 1012.82 1013.28 1013.71 1014.09 1014.54 1014.85 1015.07 1015.51 1015.47 1015.68 1015.95 1016.12 1016.61 1017.33 1017.11 1017.37 1017.14 1017.30 1017.03 1017.32 1017.83 1017.77 1017.75 1017.93 1017.33 1017.30 1018.22 1017.89
1005.91 1005.64 1005.48 1005.32 1004.82 1004.92 1005.05 1005.08 1005.10 1005.71 1006.36 1006.80 1007.84 1008.90 1009.48 1009.78 1010.32 1010.75 1011.15 1011.69 1012.22 1012.75 1013.23 1013.53 1014.12 1014.83 1015.02 1015.47 1015.47 1015.71 1015.52 1015.92 1015.85 1016.21 1016.78 1016.98 1017.02 1017.06 1017.10 1017.22 1017.29 1017.22 1017.14 1017.31 1017.56 1017.32 1017.34 1017.57 1017.72
1006.00 1005.71 1005.33 1005.22 1004.88 1004.78 1004.81 1005.05 1005.36 1006.16 1006.62 1007.21 1008.05 1008.66 1009.19 1009.51 1010.03 1010.51 1010.98 1011.36 1012.02 1012.53 1013.01 1013.50 1014.09 1014.74 1015.11 1015.44 1015.62 1015.61 1015.55 1015.61 1015.94 1015.91 1016.16 1017.03 1016.97 1017.01 1016.87 1017.07 1017.05 1017.02 1017.02 1016.95 1016.89 1016.94 1017.12 1017.10 1017.09
1005.83 1005.07 1004.89 1004.74 1005.34 1004.84 1005.03 1004.76 1005.03 1006.06 1006.48 1007.20 1007.77 1008.47 1008.99 1009.33 1009.78 1010.17 1010.64 1011.01 1011.47 1011.88 1012.41 1013.04 1013.81 1014.21 1014.96 1015.29 1015.45 1015.61 1015.39 1015.33 1015.47 1015.65 1016.03 1016.48 1016.76 1016.96 1017.09 1016.69 1016.64 1016.56 1016.64 1017.03 1017.07 1017.01 1016.70 1016.80 1016.57
1005.05 1004.87 1003.91 1004.35 1004.71 1005.16 1005.02 1004.23 1005.36 1006.10 1006.33 1006.82 1007.45 1008.13 1008.84 1009.08 1009.36 1009.72 1010.13 1010.59 1010.98 1011.51 1012.14 1012.82 1013.21 1013.63 1014.27 1014.64 1014.90 1015.02 1015.03 1015.06 1014.97 1015.17 1015.43 1016.08 1016.39 1016.60 1016.70 1016.41 1016.17 1016.12 1016.27 1016.30 1016.28 1016.39 1016.42 1016.40 1016.17
1004.68 1003.83 1003.99 1003.79 1004.18 1004.18 1004.30 1003.90 1004.89 1005.70 1005.94 1006.37 1007.11 1007.62 1008.16 1008.59 1008.96 1009.37 1009.72 1010.10 1010.45 1011.13 1011.74 1012.47 1012.92 1013.18 1013.58 1014.28 1014.54 1014.74 1014.77 1014.82 1014.65 1014.69 1014.77 1015.15 1015.72 1015.96 1016.36 1015.87 1015.64 1015.99 1015.90 1015.78 1015.83 1015.75 1016.05 1016.09 1016.24
1003.83 1003.22 1003.31 1003.25 1003.66 1003.84 1003.58 1003.45 1003.90 1004.89 1005.44 1005.68 1006.42 1006.98 1007.34 1007.70 1008.02 1008.71 1009.28 1009.57 1009.97 1010.45 1011.38 1012.01 1012.53 1012.96 1013.35 1013.75 1014.18 1014.07 1014.12 1014.19 1014.15 1014.15 1014.20 1014.46 1014.85 1015.42 1015.62 1015.54 1015.46 1015.65 1015.62 1015.41 1015.45 1015.77 1015.78 1015.84 1015.80
1003.93 1003.37 1002.88 1002.81 1003.47 1003.41 1002.94 1002.97 1002.96 1003.63 1004.62 1005.00 1005.41 1006.03 1006.55 1006.72 1007.05 1007.64 1008.34 1008.96 1009.42 1009.73 1010.39 1011.09 1011.75 1012.25 1012.91 1013.12 1013.15 1013.24 1013.19 1013.46 1013.52 1013.59 1013.88 1014.22 1014.57 1014.71 1015.13 1015.07 1014.89 1015.18 1015.36 1015.21 1015.39 1015.71 1015.97 1015.86 1015.63
1003.42 1002.74 1002.35 1002.61 1003.01 1003.05 1002.44 1001.79 1002.43 1003.03 1003.79 1004.34 1004.76 1005.04 1005.47 1005.87 1006.17 1006.70 1007.34 1007.94 1008.45 1008.86 1009.50 1010.21 1010.85 1011.47 1012.09 1012.17 1012.33 1012.35 1012.54 1012.61 1012.76 1012.80 1013.05 1013.65 1013.92 1014.12 1014.30 1014.51 1014.38 1014.38 1014.65 1015.06 1015.42 1015.59 1015.24 1014.82 1015.08
1002.50 1002.38 1002.26 1002.19 1002.53 1002.61 1002.11 1001.60 1001.88 1002.93 1003.25 1003.76 1004.01 1004.25 1004.57 1004.77 1005.13 1005.71 1006.38 1006.91 1007.34 1007.78 1008.46 1009.22 1010.11 1010.80 1011.18 1011.48 1011.68 1012.03 1012.30 1012.25 1012.04 1012.11 1012.36 1012.70 1013.11 1013.30 1013.51 1013.67 1013.98 1014.10 1014.42 1014.25 1014.51 1014.94 1015.13 1014.83 1014.73
1001.43 1002.71 1002.36 1002.01 1001.51 1000.70 1001.66 1000.71 1001.51 1001.66 1001.85 1002.65 1002.91 1003.38 1003.51 1003.83 1004.52 1004.91 1005.38 1005.78 1006.22 1006.75 1007.50 1008.21 1009.03 1009.77 1010.28 1010.90 1010.96 1010.91 1010.90 1011.40 1010.86 1011.23 1011.97 1012.13 1012.43 1012.89 1012.73 1012.88 1013.17 1013.60 1013.71 1013.58 1013.89 1014.07 1014.47 1014.90 1014.67
1002.47 1002.53 1002.01 1001.73 1001.21 1000.93 1001.18 1000.04 1000.73 1001.34 1001.21 1001.25 1001.33 1001.84 1002.33 1002.80 1003.38 1003.86 1004.37 1004.89 1005.36 1005.85 1006.46 1007.16 1008.11 1008.96 1009.60 1009.83 1010.47 1010.41 1010.63 1010.28 1010.82 1011.12 1011.77 1011.53 1011.80 1012.01 1012.50 1012.47 1012.40 1012.64 1012.94 1013.08 1013.37 1013.66 1013.95 1014.25 1014.43
1002.56 1002.18 1001.78 1001.43 1000.63 999.99 1001.09 1000.40 999.80 999.68 1000.18 1000.39 1000.56 1001.00 1001.52 1001.94 1002.57 1003.06 1003.51 1004.13 1004.72 1005.37 1006.01 1006.58 1007.50 1008.48 1009.18 1009.66 1009.86 1010.22 1010.06 1010.00 1010.14 1010.10 1010.63 1011.17 1011.25 1011.08 1011.53 1011.69 1011.93 1012.09 1012.10 1012.26 1012.60 1012.90 1013.30 1013.44 1013.59
1002.09 1000.55 999.67 999.68 999.25 999.92 1001.18 1000.42 999.66 999.85 1000.17 1000.10 1000.05 1000.33 1000.75 1001.36 1002.07 1002.59 1003.15 1003.73 1004.33 1004.92 1005.72 1006.33 1007.22 1008.03 1008.59 1008.98 1009.28 1009.52 1009.82 1009.98 1009.91 1009.91 1009.83 1009.84 1010.09 1010.43 1010.40 1010.53 1010.72 1010.97 1011.31 1011.51 1011.77 1011.79 1012.43 1012.40 1013.03
1000.86 1000.52 999.77 999.79 999.39 999.91 1001.12 999.98 999.62 1000.10 1000.42 1000.56 1000.70 1000.66 1000.64 1001.17 1001.30 1001.59 1002.22 1003.12 1003.91 1004.59 1005.51 1006.27 1006.90 1007.57 1008.03 1008.40 1008.78 1009.11 1009.33 1009.30 1009.19 1009.17 1009.28 1009.19 1009.16 1009.20 1009.56 1009.71 1010.08 1010.32 1010.42 1010.82 1011.04 1011.32 1011.77 1012.20 1012.83
1001.15 1000.47 1000.59 1000.06 1000.25 1000.14 999.77 999.97 999.53 1000.16 1000.17 1000.30 1000.36 1000.49 1000.38 1000.66 1000.84 1001.45 1002.03 1002.89 1003.64 1004.37 1005.12 1005.91 1006.65 1007.21 1007.66 1008.09 1008.48 1008.77 1008.95 1009.02 1008.84 1008.81 1008.82 1008.70 1008.97 1008.90 1009.09 1009.24 1009.41 1009.74 1009.86 1010.02 1009.97 1010.56 1010.91 1011.86 1012.02
1001.45 1001.37 1000.47 999.82 1000.02 999.82 999.30 999.71 999.21 999.98 1000.15 1000.37 1000.07 1000.02 999.98 1000.11 1000.91 1001.44 1001.82 1002.80 1003.59 1004.18 1004.97 1005.83 1006.59 1007.09 1007.44 1007.85 1008.08 1008.20 1008.42 1008.57 1008.65 1008.71 1008.57 1008.45 1008.33 1008.34 1008.37 1008.47 1008.52 1008.69 1008.86 1009.21 1009.49 1009.72 1010.40 1010.83 1011.36
1001.06 1000.63 1000.99 1000.80 1000.85 1000.24 999.68 998.99 999.79 1000.30 1000.63 1000.51 1000.22 1000.02 1000.11 1000.23 1000.79 1001.41 1001.91 1002.88 1003.75 1004.42 1004.97 1005.60 1006.44 1006.87 1007.24 1007.54 1007.66 1007.89 1008.03 1008.19 1008.29 1008.22 1008.12 1008.03 1007.96 1007.90 1007.88 1007.93 1008.12 1008.34 1008.45 1008.84 1009.28 1009.59 1010.20 1010.72 1010.95
1001.80 1001.51 1001.15 1000.78 1000.73 1000.86 1001.09 1000.20 1000.12 1000.53 1000.60 1000.61 1000.41 1000.37 1000.41 1000.86 1000.66 1001.51 1001.99 1003.24 1003.93 1004.41 1005.10 1005.57 1006.20 1006.53 1006.87 1007.12 1007.35 1007.51 1007.65 1007.77 1007.70 1007.69 1007.65 1007.76 1007.70 1007.65 1007.64 1007.71 1007.92 1008.00 1008.22 1008.68 1009.13 1009.62 1009.97 1010.20 1010.38
Wind_Speed
10 6 3 5 5 2 10 10 9 12 9 4 8 1 5 8 7 6 11 11 19 17 18 16 13 13 13 12 12 13 13 13 12 12 11 10 9 9 8 6 4 3 2 1 0 0 1 2 2
3 1 3 4 3 9 9 7 9 8 9 11 6 4 3 7 6 10 16 15 19 17 17 16 13 12 14 13 13 13 13 13 12 11 10 9 9 8 8 7 6 5 4 2 2 2 2 3 4
3 4 5 4 7 11 10 6 9 10 9 13 4 3 3 6 3 16 16 20 19 16 16 16 15 14 15 14 13 12 12 12 11 10 8 8 8 8 7 7 6 5 3 2 2 1 1 2 4
4 4 5 1 15 9 11 10 10 10 7 4 2 6 7 4 12 9 19 21 18 16 15 19 15 16 15 14 13 12 11 10 9 9 8 8 7 7 7 7 6 5 3 2 2 2 1 1 3
4 4 4 8 12 10 9 9 4 4 4 5 3 5 7 9 7 17 19 17 17 15 14 17 14 14 14 14 12 12 11 10 10 9 8 9 9 7 6 5 6 4 3 3 2 4 1 1 2
5 5 4 10 12 9 7 7 3 5 5 6 5 9 9 9 14 16 16 16 15 14 14 16 14 13 13 14 13 13 12 11 11 9 8 6 6 7 5 4 3 2 2 2 2 2 2 2 2
5 2 6 6 11 9 7 6 1 7 7 8 8 6 8 11 14 14 14 13 13 13 12 14 14 13 11 10 11 11 10 9 9 9 8 8 7 5 6 4 4 4 3 3 3 4 4 4 4
4 4 5 6 6 11 7 4 4 3 9 11 3 5 10 16 16 15 13 12 10 11 11 12 11 13 12 14 11 9 9 9 9 9 9 7 6 7 5 3 5 2 2 3 4 4 4 4 5
3 4 7 7 6 7 8 6 4 3 11 2 3 3 14 20 17 16 15 13 11 9 9 10 13 9 10 7 12 10 9 8 9 9 8 8 9 10 9 5 7 2 4 5 6 7 6 6 8
4 3 5 4 4 5 6 2 7 6 9 6 6 7 19 20 17 17 16 14 15 14 12 10 11 12 10 9 7 10 10 11 6 8 5 9 9 3 6 5 4 4 7 7 9 9 7 8 4
3 4 3 3 2 1 3 4 4 2 5 4 9 17 19 20 17 16 15 14 14 13 11 12 10 8 10 8 5 3 5 6 8 7 7 9 4 5 6 5 5 6 9 8 10 6 4 5 5
5 4 1 2 1 3 2 4 4 3 7 4 13 18 20 19 17 15 14 12 11 12 12 12 11 10 10 7 7 6 6 6 5 9 9 6 5 5 6 4 4 4 5 4 5 4 2 5 4
3 4 2 3 2 4 4 3 1 3 2 10 15 17 18 17 15 13 12 11 10 11 11 11 11 10 9 8 7 6 7 6 7 7 9 8 7 6 6 6 6 5 5 5 5 5 4 4 6
4 5 3 1 1 4 4 3 4 5 7 13 14 16 16 15 15 13 12 11 11 10 11 12 12 12 12 10 10 8 7 7 8 7 8 10 8 7 7 7 7 7 6 6 5 4 5 5 6
5 5 3 3 1 2 5 7 2 7 10 14 13 13 13 14 14 14 13 12 13 11 12 12 12 13 13 12 10 9 8 9 8 8 9 10 11 9 9 8 8 7 6 6 7 7 7 6 6
6 6 3 6 5 6 8 5 5 8 10 13 12 12 12 13 15 15 14 13 12 11 11 11 11 13 14 12 10 9 9 8 8 9 9 12 12 12 10 10 9 8 7 7 7 6 6 6 6
4 2 4 2 7 2 6 1 6 8 9 11 12 12 13 13 14 13 14 14 12 13 12 13 13 14 14 12 10 10 10 9 9 9 9 12 13 14 12 10 10 8 8 8 8 7 6 7 5
4 2 2 2 4 7 6 5 9 10 8 10 11 11 13 14 16 15 16 14 14 13 13 13 12 14 13 10 10 10 10 10 10 10 10 12 11 13 12 11 11 9 9 9 8 8 8 7 8
3 3 2 5 2 5 2 4 4 9 9 9 11 14 13 14 14 15 16 16 15 15 16 16 16 15 12 11 11 11 12 10 10 10 13 12 12 13 13 11 12 11 11 10 9 9 11 9 9
3 4 8 7 3 5 5 7 7 7 8 10 10 10 12 14 14 14 15 15 17 18 17 17 18 17 15 12 11 11 11 11 10 10 12 14 14 14 13 13 13 13 10 11 12 12 11 11 9
7 8 7 8 2 3 6 11 10 8 5 6 9 8 10 11 13 13 14 16 17 18 18 18 17 17 17 17 12 11 11 10 12 12 12 14 16 16 15 14 12 11 11 12 11 12 14 11 9
8 6 5 4 8 6 7 9 6 6 8 8 8 9 10 11 11 10 12 13 17 16 15 17 17 18 17 17 15 16 14 13 12 11 10 11 15 16 17 15 15 14 12 12 12 11 11 10 12
8 3 4 2 3 7 7 9 12 7 9 11 11 10 9 9 10 11 13 12 11 12 12 13 14 16 16 15 18 14 16 14 12 10 9 13 9 15 17 17 14 15 13 13 14 11 12 10 11
4 4 3 4 5 3 6 10 10 13 9 12 10 10 8 8 8 8 8 8 9 9 9 10 11 12 13 14 16 18 17 15 13 13 12 11 8 12 14 16 13 11 13 15 13 14 14 13 13
9 15 6 3 5 10 5 7 8 7 5 5 7 10 11 8 9 9 9 9 8 8 8 7 8 9 11 13 14 16 17 17 17 15 13 13 11 12 12 15 15 14 15 13 13 13 14 13 11
3 10 6 4 4 6 4 1 9 3 2 6 7 10 7 9 11 10 10 10 9 9 8 7 7 7 8 10 11 11 14 11 12 14 13 12 13 13 15 12 10 14 14 14 13 12 12 11 7
6 6 10 10 7 8 5 3 9 6 3 2 5 10 13 12 11 11 11 10 9 10 10 8 7 6 6 6 7 8 9 12 12 13 11 11 13 14 15 16 16 16 16 15 13 11 13 10 12
7 5 8 4 5 8 4 5 3 5 8 9 8 8 11 11 10 10 11 10 9 9 10 9 7 5 5 5 5 6 7 9 10 10 13 14 14 14 15 16 16 16 15 15 13 12 12 13 10
2 5 2 7 6 10 9 4 7 4 9 12 13 11 11 12 10 12 10 11 10 8 9 9 7 6 5 5 5 5 5 7 8 10 11 13 13 14 13 11 11 13 12 12 10 10 7 11 8
4 4 10 6 5 1 8 12 4 3 11 11 14 14 14 12 10 11 12 11 10 9 8 8 7 7 6 5 5 5 6 7 9 10 11 12 13 12 12 10 12 13 10 10 12 10 10 10 9
Wind_Direction
193 203 273 237 223 143 74 87 103 115 135 84 118 53 36 12 359 34 144 140 141 147 140 157 154 156 145 137 134 136 154 156 159 168 165 164 173 173 181 189 196 200 186 151 258 337 13 358 21
135 245 212 273 280 85 80 102 95 95 108 135 128 134 159 86 62 125 144 153 151 147 147 153 158 161 146 147 140 142 149 153 163 163 163 169 180 184 192 198 204 208 211 209 223 273 324 347 360
206 262 272 272 50 56 87 96 92 99 130 158 113 9 36 66 135 146 127 150 151 153 155 141 164 157 157 154 152 151 151 156 165 165 172 183 187 197 203 214 220 229 236 242 252 227 281 336 343
245 194 231 102 90 65 72 89 113 123 126 167 113 103 107 358 145 139 147 152 152 155 153 140 163 164 163 162 162 160 160 168 174 176 185 194 198 210 216 219 223 234 235 242 227 222 214 312 329
240 245 152 84 82 102 90 97 105 72 111 144 212 102 80 109 115 135 151 158 155 155 150 158 165 165 167 170 173 172 175 183 187 193 192 208 212 212 215 219 216 217 196 203 196 207 181 251 305
229 264 112 77 93 97 107 124 119 82 97 98 135 117 86 109 139 146 157 163 159 159 153 154 165 170 170 176 183 183 183 190 195 196 202 216 209 208 200 191 191 202 194 160 188 220 242 269 283
311 277 68 88 97 74 112 140 141 99 124 124 129 113 108 145 140 149 158 168 162 159 166 157 173 172 173 182 183 179 187 191 193 203 204 210 204 220 207 195 195 180 198 203 213 234 251 253 276
293 264 152 55 65 76 114 154 91 63 83 113 147 145 164 149 152 150 158 165 170 167 173 176 154 185 189 175 192 193 197 206 202 214 200 231 212 213 216 200 207 248 235 271 287 295 271 286 292
279 218 93 77 24 67 140 150 143 106 141 130 92 74 130 144 157 157 161 164 174 182 182 192 164 185 185 214 169 196 210 211 212 214 198 211 227 179 177 158 109 215 262 258 272 287 305 296 250
284 292 70 77 77 57 147 198 135 168 153 138 105 117 131 153 164 168 172 174 180 181 188 197 187 178 187 209 184 208 195 206 189 197 212 232 215 254 330 89 143 247 266 268 254 259 252 248 258
25 15 59 88 69 148 128 179 155 137 174 137 147 146 154 158 168 172 180 181 183 183 184 191 200 195 194 203 177 203 209 201 173 236 196 228 228 210 208 237 203 218 195 258 208 213 233 277 286
283 84 7 49 67 165 202 122 173 212 48 39 132 158 162 167 171 176 179 174 180 186 193 187 195 187 212 186 200 206 211 203 212 193 204 244 216 217 257 250 237 225 234 241 247 267 330 228 287
307 33 287 18 267 196 166 187 13 171 90 114 133 158 170 173 174 177 181 173 183 186 194 201 189 201 205 210 202 233 218 207 218 206 196 228 226 225 217 230 237 239 236 237 244 255 285 312 253
350 311 288 111 78 148 239 178 208 115 141 134 147 161 174 177 178 177 186 184 190 187 191 199 200 196 206 210 216 214 225 222 223 222 210 212 232 227 234 225 225 228 237 247 259 256 283 289 306
281 290 210 126 87 86 305 197 136 136 163 149 152 162 173 180 181 189 191 196 191 192 198 197 200 199 206 210 213 220 228 218 223 225 220 214 215 223 249 229 228 229 229 251 253 254 251 257 255
249 243 240 117 185 150 239 108 125 156 167 163 158 162 178 185 189 193 195 201 195 214 194 204 201 203 204 210 212 223 224 234 229 227 225 214 221 225 216 234 229 231 233 237 243 250 269 268 274
205 76 219 212 203 230 250 53 130 166 180 169 174 173 181 187 198 197 203 204 204 201 209 208 209 213 208 207 219 224 229 228 236 232 230 217 222 222 226 232 232 231 240 242 247 246 239 266 247
65 79 88 338 119 234 268 284 172 184 213 187 185 191 193 196 198 199 209 211 208 212 211 215 217 218 213 213 214 224 227 230 231 232 232 228 224 224 224 233 240 235 239 242 242 250 265 265 284
322 322 358 69 62 261 317 293 263 167 198 199 199 192 204 210 202 199 206 213 219 216 214 216 215 216 210 208 213 217 223 224 229 231 235 234 233 229 222 235 232 228 247 254 255 243 241 258 260
290 276 58 120 61 255 39 60 86 137 182 191 209 206 207 208 213 210 210 217 218 223 220 218 222 214 212 216 219 227 225 227 229 229 228 224 228 227 229 232 242 242 243 230 241 245 257 248 244
110 357 13 358 75 190 277 112 113 130 161 174 204 210 206 215 215 210 217 224 223 224 226 224 224 226 218 223 217 225 235 234 230 227 228 225 226 225 225 231 234 247 241 248 231 235 238 250 251
100 350 305 293 256 106 310 122 139 127 131 173 187 191 204 204 213 220 220 227 228 235 223 229 224 226 227 222 232 222 227 226 230 224 228 232 226 237 230 228 231 234 245 245 248 243 246 232 247
48 308 303 256 204 216 162 270 113 172 174 156 157 168 193 202 208 213 221 229 228 231 227 220 222 228 229 226 227 230 229 236 235 236 228 231 221 225 243 236 229 230 235 243 248 256 237 229 245
157 221 172 199 229 124 49 289 171 157 188 179 177 174 185 199 212 219 222 216 218 220 222 218 212 222 228 228 231 233 251 242 251 240 229 232 229 227 217 236 234 228 236 236 240 240 235 239 239
224 246 218 231 194 62 33 261 79 108 181 252 206 198 191 192 201 195 199 196 196 198 205 206 206 213 219 224 231 235 239 248 251 247 249 246 233 234 231 207 216 222 227 229 240 227 239 227 230
282 321 337 297 354 59 136 292 86 32 338 291 263 253 251 202 208 199 176 179 178 172 167 183 183 203 215 224 235 239 245 245 248 245 254 253 249 244 234 229 223 234 230 236 229 235 233 224 213
128 247 13 295 180 260 110 161 254 105 86 341 278 240 230 215 213 195 182 182 165 159 152 160 170 188 197 222 236 244 247 248 262 272 262 254 257 254 258 242 236 235 238 239 228 232 236 209 209
309 352 266 221 293 277 157 252 262 38 5 357 337 291 263 222 217 211 190 173 170 150 140 140 156 174 175 205 223 236 248 254 260 262 260 262 262 262 256 254 244 242 242 236 222 230 217 215 217
214 219 231 291 297 311 296 350 74 65 353 332 320 312 306 271 217 216 199 166 166 155 146 144 160 170 184 206 219 236 253 262 265 267 271 269 268 263 258 252 249 250 245 240 216 223 205 214 220
311 7 292 337 314 296 293 284 102 316 315 299 296 301 306 310 250 228 194 169 167 163 162 159 170 181 197 205 224 245 262 273 276 277 271 267 266 262 256 250 240 236 228 211 208 203 207 199 220